[Date Prev][Date Next][Thread Prev][Thread Next] - [Date Index][Thread Index][Author Index]
2 Line ISS Keps 6-23
- Subject: [sarex] 2 Line ISS Keps 6-23
- From: "Dave Larsen PhD" <doc@xxxxxxxxxxx>
- Date: Mon, 23 Jun 2003 05:53:13 -0700
ISS
1 25544U 98067A 03174.30684028 .00012091 00000-0 15376-3 0 1457
2 25544 51.6335 349.4631 0006931 289.6280 77.2864 15.59802918261965
----
Via the sarex mailing list at AMSAT.ORG courtesy of AMSAT-NA.
To unsubscribe, send "unsubscribe sarex" to Majordomo@amsat.org
AMSAT Home